Regional Weather Roundup
Issued by NWS Newport/Morehead, NC

Current Version | Previous Version | Text Only | Print | Product List | Glossary On
Versions: 1 2 3 4 5 6 7 8 9 10 11 12 13 14 15 16 17 18 19 20 21 22 23 24 25 26 27 28 29 30 31 32 33 34 35 36 37 38 39 40 41 42 43 44 45 46 47 48 49 50
000
ASUS42 KMHX 010610
RWRMHX
WEATHER ROUNDUP FOR EASTERN NORTH CAROLINA
NATIONAL WEATHER SERVICE NEWPORT/MOREHEAD CITY NC
200 AM EDT FRI AUG 01 2014

NOTE: "FAIR" INDICATES FEW OR NO CLOUDS BELOW 12,000 FEET
WITH NO SIGNIFICANT WEATHER AND/OR OBSTRUCTIONS TO VISIBILITY

NCZ015>017-031-032-045>047-102-103-010700-
NORTH COAST

CITY           SKY/WX    TMP DP  RH WIND       PRES   REMARKS
EDENTON        CLOUDY    73  66  78 E3        30.15F
ELIZABETH CITY CLOUDY    74  67  78 CALM      30.16F
KITTY HAWK     CLOUDY    76  68  75 SE5       30.14F
MANTEO         NOT AVBL

$$

NCZ045>047-081-094-103-104-010700-
CENTRAL COAST

CITY           SKY/WX    TMP DP  RH WIND       PRES   REMARKS
FRISCO         MOCLDY    79  67  66 SE12      30.14F
SWANQUARTER      N/A     73 N/A N/A E3        30.09F

$$

NCZ095-097-098-100-101-010700-
SOUTHERN COAST

CITY           SKY/WX    TMP DP  RH WIND       PRES   REMARKS
BEAUFORT       CLOUDY    80  69  69 E9        30.11F
CEDAR ISLAND     N/A     79 N/A N/A E10       30.18S
JACKSONVILLE   CLOUDY    76  69  79 E8        30.10F
NEWPORT        NOT AVBL
PINEY ISLAND   CLOUDY    80  70  71 E9        30.12F
WILMINGTON     CLOUDY    78  72  81 E10       30.07F


$$

NCZ011>013-027>030-043-044-078>080-089-090>093-098-010700-
COASTAL PLAIN

CITY           SKY/WX    TMP DP  RH WIND       PRES   REMARKS
AHOSKIE        CLOUDY    70  66  86 CALM      30.16F
CLINTON        LGT RAIN  73  70  92 CALM      30.10F
ELIZABETHTOWN  RAIN      72  70  95 E3        30.09F
GOLDSBORO      CLOUDY    73  71  92 E6        30.10
GREENVILLE     CLOUDY    72  68  88 E5        30.14F
HAVELOCK       CLOUDY    75  68  78 E7        30.12F
KENANSVILLE    NOT AVBL
KINSTON        CLOUDY    73  67  81 E6        30.13F
NEW BERN       CLOUDY    78  68  71 E6        30.13F
RICHLANDS      CLOUDY    73  66  78 E5        30.11F
ROANOKE RAPIDS NOT AVBL
ROCKY MOUNT    CLOUDY    71  68  90 NE3       30.14F
WASHINGTON     CLOUDY    70  66  86 NE3       30.15F
WHITEVILLE     LGT RAIN  73  71  93 NE7       30.06F

$$

AMZ130-135-150-152-154-156-158-170-250-252-270-ANZ085-086-088-633-658-670-010700-
MARINE OBSERVATIONS

STATION/POSITION TIME  TEMP    WIND        PRES    WAVE   SWELL
                       AIR SEA DIR/SP/G            HT/PER HT/PER
                 (UTC) (F)     (DEG/KT/KT) (MB)    (FT/S) (FT/S)
CHESAPEAKE LIGHT NOT AVBL
BUOY 44014       0600   78 78  130/  8/ 10 1021.3    3/ 7   2/ 7
DUCK             0600   77 77  120/ 12/ 14 1020.5
2E DUCK          0600                        N/A     3/ 7
OREGON INLET     0600   77 79  100/  6/  9 1021.1
BUOY 44095       0600      78                N/A     3/ 6
20E OREGON INLET NOT AVBL
HATTERAS CG      0600   80 80  110/  9/ 12 1021.0
DIAMOND BUOY     0600          VRB 14/ 17  1020.2    4/ 6   2/ 8
CAPE LOOKOUT     0500   80     100/ 15/ 17 1020.3
BEAUFORT LAB     0600   80 82  100/  6/  9 1019.4
30 SE NEW RIVER  0600   81 81   90/ 17/ 19 1018.8    5/ 5
5 SE WRIGHTSVILL 0500   77 81   70/ 17/ 21   N/A
BUOY 41002       0536   81 81  170/ 10/ 12 1019.4    4/ 6   3/ 6
BUOY 41004       0600   83 83  150/ 14/ 16 1015.2    4/ 7   2/ 7

$$



USA.gov is the U.S. government's official web portal to all federal, state and local government web resources and services.